Volver al catálogo

STARLINK-4717

ActivoComunicacionesVLEO
NORAD 53705·PAYLOAD·🇺🇸 United States

Lanzado Sep 5, 2022 desde Cape Canaveral Space Force Station

Loading…

Próximos Pases (próximas 24 horas)

TLE

ActualizadoSource: CelesTrak SupGP

Época: Sep 15, 2026, 02:48 UTC

1 53705C 22107F   26258.11715278  .00021623  00000+0  61880-3 0  2584
2 53705  53.1591 110.6828 0001024  90.2535 349.9782 15.35379757    18

Sigue STARLINK-4717 en tiempo real con AllMySat

Download on the App Store